N9XP-9 Weather Reports


time (UTC)temp
C
wind
direction
speed
KPH
gust
KPH
rain 1hr
cm
rain 24hr
cm
rain mn
cm
humidity
%
barometer
mb
20260902063025 23 150 0.0 0.0 0.00 0.00 0.00 90 1013.4
20260902061526 23 151 0.0 1.6 0.00 0.00 0.00 91 1013.3
20260902060021 23 153 0.0 0.0 0.00 0.00 0.00 89 1013.2
20260902054532 24 152 0.0 1.6 0.00 0.00 0.00 90 1013.2
20260902053020 24 153 0.0 0.0 0.00 0.00 0.00 89 1013.2
20260902051515 25 153 0.0 1.6 0.00 0.00 0.00 87 1013.3
20260902050020 25 133 0.0 1.6 0.00 0.00 0.00 86 1013.3
20260902044510 25 147 0.0 1.6 0.00 0.00 0.00 86 1013.3
20260902043013 25 129 0.0 1.6 0.00 0.00 0.00 84 1013.2
20260902041519 25 127 0.0 0.0 0.00 0.00 0.00 84 1013.2
20260902040006 26 129 0.0 1.6 0.00 0.00 0.00 83 1013.3
20260902034507 26 118 0.0 1.6 0.00 0.00 0.00 82 1013.4
20260902033006 26 113 0.0 1.6 0.00 0.00 0.00 81 1013.4
20260902031505 26 114 0.0 1.6 0.00 0.00 0.00 80 1013.5
20260902030005 27 148 0.0 6.4 0.00 0.00 0.00 80 1013.5
20260902024503 27 148 0.0 0.0 0.00 0.00 0.00 80 1013.4
20260902023004 27 160 0.0 1.6 0.00 0.00 0.00 78 1013.4
20260902021512 28 238 0.0 4.8 0.00 0.00 0.00 76 1013.3
20260902020002 28 136 1.6 4.8 0.00 0.00 0.00 76 1013.2
20260902014502 28 136 0.0 6.4 0.00 0.00 0.00 75 1013.0
20260902013001 28 166 1.6 8.0 0.00 0.00 0.00 74 1012.9
20260902011502 28 167 3.2 9.7 0.00 0.00 0.00 74 1012.7
20260902004559 29 167 0.0 3.2 0.00 0.00 0.00 74 1012.4
20260902003058 30 170 0.0 6.4 0.00 0.00 0.00 73 1012.2
20260902001607 30 172 0.0 8.0 0.00 0.00 0.00 72 1012.3
20260902000056 31 164 1.6 8.0 0.00 0.00 0.00 71 1012.4
20260901234605 31 157 1.6 6.4 0.00 0.00 0.00 70 1012.5
20260901233105 32 136 0.0 4.8 0.00 0.00 0.00 69 1012.5
20260901231554 32 138 0.0 6.4 0.00 0.00 0.00 65 1012.6
20260901230053 32 134 1.6 6.4 0.00 0.00 0.00 64 1012.6
20260901224553 32 139 0.0 6.4 0.00 0.00 0.00 65 1012.6
20260901223053 32 129 3.2 9.7 0.00 0.00 0.00 64 1012.7
20260901221551 32 176 1.6 8.0 0.00 0.00 0.00 64 1012.8
20260901220050 33 194 0.0 6.4 0.00 0.00 0.00 63 1012.7
20260901214602 33 139 0.0 9.7 0.00 0.00 0.00 62 1012.7
20260901213122 33 163 3.2 16.1 0.00 0.00 0.00 60 1012.7
20260901211549 33 221 0.0 9.7 0.00 0.00 0.00 61 1012.7
20260901210047 34 122 3.2 11.3 0.00 0.00 0.00 60 1012.8
20260901204545 33 160 1.6 6.4 0.00 0.00 0.00 63 1012.8
20260901203112 33 160 3.2 9.7 0.00 0.00 0.00 61 1012.9
20260901201545 33 152 4.8 12.9 0.00 0.00 0.00 59 1012.9
20260901200043 33 162 6.4 14.5 0.00 0.00 0.00 61 1013.0
20260901194543 33 158 4.8 12.9 0.00 0.00 0.00 57 1013.1
20260901193042 33 147 3.2 14.5 0.00 0.00 0.00 60 1013.1
20260901191539 33 148 4.8 16.1 0.00 0.00 0.00 64 1013.2
20260901190037 32 130 6.4 14.5 0.00 0.00 0.00 65 1013.3
20260901184537 33 136 4.8 12.9 0.00 0.00 0.00 63 1013.5
20260901183041 33 140 1.6 6.4 0.00 0.00 0.00 62 1013.6
20260901181533 33 134 4.8 9.7 0.00 0.00 0.00 64 1013.6
20260901180033 32 153 6.4 14.5 0.00 0.00 0.00 66 1013.7
20260901174531 32 129 1.6 6.4 0.00 0.00 0.00 67 1013.7
20260901173028 32 136 4.8 12.9 0.00 0.00 0.00 69 1013.7
20260901171525 32 167 3.2 12.9 0.00 0.00 0.00 68 1013.9
20260901170025 32 161 1.6 12.9 0.00 0.00 0.00 69 1014.0
20260901164523 31 169 4.8 11.3 0.00 0.00 0.00 69 1014.1
20260901163021 31 315 1.6 4.8 0.00 0.00 0.00 70 1014.1
20260901161517 30 285 0.0 6.4 0.00 0.00 0.00 75 1014.2
20260901160016 30 143 1.6 6.4 0.00 0.00 0.00 75 1014.1
20260901154516 29 185 1.6 9.7 0.00 0.00 0.00 76 1014.0
20260901153010 29 162 3.2 9.7 0.00 0.00 0.00 76 1014.1
20260901151506 28 124 1.6 11.3 0.00 0.00 0.00 79 1014.2
20260901150006 27 126 4.8 9.7 0.00 0.00 0.00 79 1014.2
20260901144501 27 228 3.2 9.7 0.00 0.00 0.00 79 1014.3
20260901143102 27 171 0.0 6.4 0.00 0.00 0.00 81 1014.3
20260901141558 26 165 3.2 9.7 0.00 0.00 0.00 82 1014.2
20260901140100 26 156 3.2 11.3 0.00 0.00 0.00 85 1014.1
20260901134551 25 149 1.6 6.4 0.00 0.10 0.00 86 1014.2
20260901133048 25 173 0.0 6.4 0.00 0.10 0.00 87 1014.2
20260901131547 24 157 0.0 4.8 0.00 0.10 0.00 89 1014.3
20260901130047 24 151 1.6 9.7 0.00 0.10 0.00 89 1014.4
20260901124547 24 154 0.0 4.8 0.00 0.69 0.00 90 1014.5
20260901123045 23 132 0.0 6.4 0.00 0.69 0.00 90 1014.4
20260901121544 23 140 0.0 3.2 0.00 0.69 0.00 91 1014.3
20260901120046 23 130 0.0 1.6 0.00 0.69 0.00 92 1014.0
20260901114540 23 157 0.0 3.2 0.00 0.69 0.00 92 1013.8
20260901113039 23 148 0.0 1.6 0.00 0.69 0.00 92 1013.7
20260901111537 23 131 0.0 1.6 0.00 0.69 0.00 92 1013.5
20260901110037 23 156 0.0 1.6 0.00 0.69 0.00 92 1013.4
20260901104540 23 141 0.0 1.6 0.00 0.69 0.00 92 1013.3
20260901103033 23 112 0.0 1.6 0.00 0.69 0.00 91 1013.3
20260901101531 23 113 0.0 1.6 0.00 0.69 0.00 90 1013.1
20260901100029 23 148 0.0 4.8 0.00 0.69 0.00 90 1013.2
20260901094533 23 130 0.0 3.2 0.00 0.69 0.00 90 1013.3
20260901093027 23 134 0.0 3.2 0.00 0.69 0.00 89 1013.2
20260901091526 23 124 0.0 1.6 0.00 0.69 0.00 89 1013.2
20260901090024 24 200 0.0 3.2 0.00 0.69 0.00 88 1013.1
20260901084523 24 155 0.0 3.2 0.00 0.69 0.00 88 1013.0
20260901083022 24 139 0.0 4.8 0.00 0.69 0.00 87 1013.0
20260901081522 25 144 1.6 8.0 0.00 0.69 0.00 87 1013.0
20260901080022 25 150 1.6 6.4 0.00 0.69 0.00 87 1013.0
20260901074520 24 134 0.0 6.4 0.00 0.69 0.00 87 1013.0
20260901073019 24 133 0.0 1.6 0.00 0.69 0.00 89 1013.0
20260901071518 24 134 0.0 1.6 0.00 0.69 0.00 89 1012.9
20260901070016 24 143 0.0 1.6 0.00 0.69 0.00 89 1012.9
20260901064515 24 136 0.0 1.6 0.00 0.69 0.00 89 1012.8